STARLINK-4687, 53784

Orbit data source: Space-Track

STARLINK-4687, 53784 is a payload satellite owned by SpaceX/Seattle (US) in LEO that was launched on Sun, 11 Sep 2022 UTC via an FALCON 9 launch vehicle from the Air Force Eastern Test Range (AFETR). Payload-class satellites include a variety of spacecraft equipped with specific instruments for various scientific and technological missions. These include communications satellites like Starlink; space stations such as the ISS; scientific satellites like the Hubble; Earth observation satellites from companies like Planet Labs, Umbra, and HawkEye 360; GPS; miniature CubeSats for education and research; and military/defense satellites.

Loading next visibility...
Identifier
53784, 2022-111M
Orbit
LEO
Country
Flag of USUS
Related business
Manufacturer
SpaceX/Seattle
Mission
Operational Commercial Communications
Bus & Motor
STARLINK, Unknown motor
Mass
305 kg wet, ~290 kg dry
Launch date (UTC)
2022-09-11 (4 years ago)
Launch vehicle
FALCON 9
Launch site
Air Force Eastern Test Range (AFETR)
Object type
Payload
Rocket body
Debris
Shape & HBR
Box + 1 Pan, 10.1 m
Radar Cross Section
13.562 m², Large (>1 m²)

Expand to show TLE details & history
Last TLE update: 17 hours ago

TLE from 17 hours ago
0 STARLINK-4687
1 53784U 22111M   26249.21111626  .00000010  00000-0  12085-4 0  9998
2 53784  53.1594 172.3022 0001205  90.5571 269.5569 15.31700286221109
Epoch: 2026-09-06T05:04Z
TLE epoch observation values (Epoch: 2026-09-06T05:04:00.444Z)
Latitude
Longitude
110.99086°
Altitude
471.646 km
Speed
7.631 km/s
True Right ascension
11h 29m 12s
True Declination
0° 00' 00"
Sunlit
Object was in daylight at epoch
Visualization orbit readout
Latitude
Unknown
Longitude
Unknown
Altitude
Unknown
Speed
Unknown
Apparent Right ascension
Unknown
Apparent Declination
Unknown
Sunlit
N/A
Visualization observer readout
Local Sidereal Time
13:41:50
Azimuth
Unknown
Elevation
Unknown
Doppler factor
Unknown
Orbital elements
Apogee altitude
471.821 km
Perigee altitude
470.171 km
Semi-major axis
6,849.133 km
Eccentricity
0.00012
Inclination
53.1594°
RAAN
172.3022°
Arg. of periapsis
90.5571°
True anomaly
269.54309°
Mean anomaly
269.5569°
Eccentric anomaly
269.55°
Mean motion
3.82904 °/min
Orbital period
94.02 mins
BSTAR
0.000012085
Loading maneuver chart data...
Computing Atmospheric mass density...
Loading historical data...
Loading historical data...
Loading historical data...
Loading historical data...
Loading historical data...
Loading historical data...
Loading historical data...

Documentation

Showing up to 5 results
|